Total_Precipitation_Accumulation
0.04 0.04 0.03 0.03 0.04 0.06 0.06 0.05 0.05 0.06 0.08 0.09 0.10 0.11 0.13 0.13 0.14 0.12 0.10 0.09 0.07 0.08 0.13 0.25 0.40 0.53 0.60 0.67 0.74 0.64 0.54 0.32 0.10 0.02 0.01 0.01 0.01 0.02 0.02 0.03 0.03 0.03 0.03
0.01 0.01 0.01 0.02 0.02 0.02 0.02 0.01 0.01 0.01 0.01 0.03 0.04 0.06 0.09 0.10 0.11 0.13 0.13 0.14 0.12 0.10 0.11 0.16 0.25 0.42 0.51 0.54 0.66 0.77 0.65 0.55 0.34 0.12 0.03 0.01 0.01 0.01 0.01 0.03 0.04 0.04 0.04
0.00 0.00 0.01 0.01 0.01 0.01 0.01 0.00 0.00 0.00 0.00 0.00 0.01 0.01 0.02 0.05 0.07 0.08 0.11 0.15 0.17 0.15 0.13 0.15 0.16 0.28 0.41 0.46 0.50 0.72 0.79 0.66 0.59 0.40 0.16 0.05 0.01 0.01 0.00 0.01 0.02 0.04 0.05
0.00 0.00 0.00 0.00 0.00 0.00 0.00 0.00 0.00 0.00 0.00 0.00 0.00 0.00 0.00 0.01 0.02 0.03 0.05 0.10 0.18 0.21 0.19 0.17 0.17 0.18 0.30 0.40 0.48 0.59 0.94 0.84 0.72 0.66 0.46 0.20 0.06 0.02 0.01 0.01 0.01 0.03 0.04
0.00 0.00 0.00 0.00 0.00 0.00 0.00 0.00 0.00 0.00 0.00 0.00 0.00 0.00 0.00 0.00 0.01 0.02 0.03 0.05 0.09 0.17 0.23 0.22 0.21 0.17 0.21 0.32 0.42 0.52 0.84 1.10 0.90 0.75 0.62 0.42 0.21 0.07 0.02 0.01 0.01 0.01 0.03
0.00 0.00 0.00 0.00 0.00 0.00 0.00 0.00 0.00 0.00 0.00 0.00 0.00 0.00 0.00 0.00 0.00 0.01 0.02 0.04 0.05 0.09 0.17 0.24 0.24 0.18 0.13 0.16 0.28 0.47 0.66 0.95 1.11 0.93 0.75 0.55 0.35 0.19 0.07 0.03 0.01 0.01 0.01
0.00 0.00 0.00 0.00 0.00 0.00 0.00 0.00 0.00 0.01 0.01 0.01 0.01 0.00 0.00 0.00 0.00 0.00 0.00 0.01 0.03 0.05 0.08 0.18 0.25 0.22 0.15 0.13 0.14 0.21 0.40 0.65 0.93 1.08 1.01 0.77 0.46 0.27 0.14 0.06 0.02 0.01 0.00
0.00 0.00 0.00 0.00 0.00 0.00 0.00 0.01 0.01 0.02 0.02 0.02 0.04 0.04 0.01 0.00 0.00 0.00 0.00 0.00 0.01 0.02 0.05 0.09 0.17 0.21 0.19 0.14 0.08 0.10 0.18 0.38 0.58 0.79 1.01 0.99 0.72 0.40 0.19 0.10 0.03 0.01 0.00
0.00 0.00 0.00 0.00 0.00 0.00 0.01 0.01 0.02 0.04 0.05 0.03 0.05 0.11 0.09 0.03 0.01 0.00 0.00 0.00 0.00 0.01 0.02 0.05 0.11 0.17 0.21 0.20 0.14 0.11 0.12 0.22 0.42 0.58 0.69 0.85 0.84 0.67 0.39 0.17 0.06 0.02 0.00
0.00 0.00 0.00 0.00 0.00 0.00 0.01 0.03 0.03 0.05 0.08 0.08 0.06 0.08 0.09 0.08 0.07 0.03 0.00 0.01 0.01 0.01 0.01 0.02 0.06 0.11 0.17 0.22 0.21 0.18 0.16 0.14 0.26 0.42 0.49 0.60 0.68 0.69 0.60 0.36 0.15 0.05 0.01
0.00 0.00 0.00 0.00 0.00 0.00 0.02 0.03 0.05 0.06 0.10 0.12 0.11 0.10 0.08 0.06 0.06 0.07 0.03 0.01 0.02 0.03 0.03 0.03 0.04 0.07 0.11 0.17 0.21 0.20 0.20 0.16 0.20 0.32 0.43 0.53 0.58 0.61 0.69 0.52 0.24 0.10 0.04
0.00 0.00 0.00 0.00 0.00 0.00 0.01 0.03 0.06 0.08 0.10 0.12 0.13 0.13 0.12 0.11 0.08 0.09 0.07 0.03 0.02 0.02 0.03 0.03 0.04 0.06 0.10 0.14 0.16 0.18 0.18 0.19 0.20 0.26 0.33 0.49 0.62 0.64 0.68 0.55 0.27 0.10 0.04
0.00 0.00 0.00 0.00 0.00 0.01 0.02 0.05 0.07 0.08 0.10 0.13 0.14 0.13 0.13 0.11 0.09 0.10 0.10 0.06 0.04 0.02 0.02 0.03 0.04 0.07 0.09 0.12 0.14 0.13 0.13 0.16 0.21 0.28 0.27 0.30 0.44 0.62 0.80 0.86 0.61 0.24 0.07
0.01 0.00 0.00 0.00 0.00 0.01 0.03 0.05 0.07 0.08 0.10 0.13 0.13 0.12 0.11 0.09 0.08 0.10 0.11 0.11 0.08 0.04 0.02 0.02 0.03 0.06 0.09 0.13 0.15 0.14 0.12 0.13 0.17 0.21 0.22 0.23 0.28 0.37 0.57 0.86 1.00 0.77 0.42
0.01 0.01 0.01 0.01 0.01 0.02 0.04 0.05 0.07 0.09 0.12 0.13 0.13 0.13 0.14 0.13 0.12 0.11 0.11 0.12 0.13 0.09 0.04 0.02 0.04 0.06 0.09 0.14 0.17 0.15 0.14 0.13 0.13 0.15 0.18 0.19 0.23 0.29 0.37 0.50 0.71 0.90 0.92
0.01 0.01 0.01 0.01 0.02 0.04 0.05 0.05 0.07 0.09 0.12 0.13 0.16 0.18 0.20 0.22 0.21 0.19 0.17 0.15 0.14 0.12 0.07 0.03 0.03 0.07 0.12 0.15 0.20 0.16 0.16 0.16 0.13 0.12 0.13 0.17 0.20 0.28 0.37 0.44 0.51 0.63 0.77
0.01 0.01 0.02 0.04 0.05 0.07 0.07 0.08 0.10 0.14 0.16 0.16 0.20 0.26 0.30 0.32 0.35 0.33 0.29 0.24 0.19 0.16 0.11 0.04 0.02 0.05 0.13 0.18 0.19 0.18 0.19 0.15 0.11 0.10 0.10 0.13 0.17 0.23 0.34 0.42 0.47 0.51 0.62
0.01 0.01 0.05 0.08 0.10 0.11 0.11 0.12 0.15 0.24 0.34 0.34 0.32 0.33 0.34 0.38 0.41 0.41 0.41 0.36 0.26 0.19 0.14 0.09 0.04 0.04 0.09 0.19 0.23 0.21 0.20 0.16 0.11 0.09 0.08 0.09 0.12 0.18 0.27 0.36 0.42 0.46 0.53
0.01 0.02 0.07 0.14 0.16 0.17 0.18 0.20 0.23 0.29 0.42 0.54 0.56 0.54 0.49 0.45 0.44 0.44 0.46 0.43 0.35 0.26 0.19 0.14 0.08 0.05 0.07 0.16 0.25 0.26 0.23 0.18 0.13 0.10 0.08 0.07 0.09 0.13 0.19 0.25 0.32 0.37 0.40
0.02 0.04 0.07 0.15 0.19 0.22 0.29 0.40 0.48 0.44 0.44 0.54 0.63 0.67 0.67 0.67 0.60 0.53 0.49 0.46 0.43 0.35 0.26 0.20 0.14 0.09 0.09 0.15 0.27 0.29 0.24 0.19 0.15 0.11 0.09 0.06 0.06 0.08 0.11 0.13 0.15 0.22 0.32
0.02 0.04 0.05 0.08 0.14 0.22 0.43 0.62 0.65 0.51 0.39 0.37 0.42 0.49 0.59 0.71 0.73 0.69 0.63 0.52 0.46 0.42 0.36 0.28 0.22 0.17 0.14 0.18 0.27 0.32 0.31 0.26 0.20 0.15 0.11 0.05 0.04 0.03 0.06 0.10 0.14 0.18 0.24
0.02 0.03 0.03 0.04 0.09 0.23 0.50 0.64 0.51 0.30 0.20 0.22 0.27 0.30 0.34 0.48 0.54 0.60 0.66 0.59 0.54 0.52 0.50 0.45 0.34 0.26 0.20 0.21 0.27 0.35 0.36 0.33 0.27 0.18 0.14 0.11 0.07 0.06 0.05 0.06 0.11 0.13 0.15
0.01 0.03 0.02 0.01 0.04 0.18 0.43 0.53 0.33 0.12 0.09 0.12 0.16 0.17 0.18 0.27 0.31 0.33 0.41 0.43 0.48 0.55 0.62 0.63 0.59 0.47 0.32 0.24 0.27 0.35 0.37 0.33 0.28 0.26 0.23 0.24 0.21 0.15 0.10 0.10 0.13 0.13 0.12
0.01 0.02 0.02 0.00 0.01 0.08 0.34 0.47 0.27 0.06 0.06 0.09 0.12 0.10 0.07 0.13 0.20 0.21 0.24 0.30 0.37 0.49 0.65 0.73 0.77 0.71 0.54 0.38 0.32 0.41 0.46 0.38 0.35 0.39 0.37 0.42 0.42 0.30 0.22 0.19 0.18 0.14 0.12
0.00 0.00 0.01 0.00 0.00 0.02 0.23 0.45 0.29 0.06 0.05 0.07 0.11 0.13 0.07 0.04 0.10 0.07 0.10 0.16 0.21 0.33 0.46 0.59 0.63 0.62 0.58 0.55 0.50 0.50 0.57 0.51 0.53 0.60 0.54 0.54 0.61 0.52 0.42 0.37 0.32 0.23 0.16
0.00 0.00 0.00 0.00 0.00 0.01 0.12 0.40 0.40 0.09 0.04 0.06 0.07 0.09 0.12 0.07 0.06 0.03 0.03 0.06 0.10 0.17 0.23 0.29 0.35 0.39 0.43 0.47 0.54 0.61 0.70 0.68 0.68 0.76 0.66 0.53 0.63 0.63 0.67 0.60 0.41 0.26 0.19